When you browse on this site, cookies collect data to enhance your experience and personalize the content and advertising you see.
Visit our Privacy Policy to learn more. By continuing to use the site, you agree to this use of cookies and data.
  • In France
  • List of Countries
  • For 7 days
  • Water Temperature
  • Weather Map
  • Weather Widgets
  • user-avatar
    Login

    Hourly Weather Ischgl

    Today, 23 August, Friday

    Time Temperature Precipitation Wind Pressure Humidity
    00:00 +5°C° 0 mm 0 mps 579 mmHg 94%
    01:00 +5°C° 0 mm 0 mps 579 mmHg 94%
    02:00 +4°C° 0 mm 0 mps 579 mmHg 93%
    03:00 +4°C° 0 mm 0 mps 579 mmHg 92%
    04:00 +4°C° 0 mm 0 mps 579 mmHg 91%
    05:00 +6°C° 0 mm 0 mps 580 mmHg 88%
    06:00 +7°C° 0 mm 0 mps 580 mmHg 85%
    07:00 +10°C° 0 mm 1 mps 581 mmHg 82%
    08:00 +11°C° 0 mm 1 mps 582 mmHg 74%
    09:00 +13°C° 0 mm 1 mps 583 mmHg 67%
    10:00 +15°C° 0 mm 1 mps 584 mmHg 60%
    11:00 +15°C° 0.4 mm 1 mps 584 mmHg 60%
    12:00 +15°C° 0.4 mm 1 mps 584 mmHg 61%
    13:00 +16°C° 0.4 mm 1 mps 583 mmHg 61%
    14:00 +15°C° 1.2 mm 1 mps 583 mmHg 65%
    15:00 +14°C° 1.2 mm 1 mps 583 mmHg 69%
    16:00 +14°C° 1.2 mm 1 mps 583 mmHg 73%
    17:00 +13°C° 1 mm 1 mps 582 mmHg 79%
    18:00 +12°C° 1 mm 1 mps 581 mmHg 84%
    19:00 +11°C° 1 mm 1 mps 580 mmHg 89%
    20:00 +10°C° 0.3 mm 1 mps 580 mmHg 88%
    21:00 +10°C° 0.3 mm 1 mps 580 mmHg 87%
    22:00 +9°C° 0.3 mm 1 mps 580 mmHg 87%
    23:00 +9°C° 0 mm 1 mps 580 mmHg 86%

    Tomorrow, 24 August, Saturday

    Time Temperature Precipitation Wind Pressure Humidity
    00:00 +8°C° 0 mm 1 mps 579 mmHg 86%
    01:00 +8°C° 0 mm 1 mps 579 mmHg 86%
    02:00 +7°C° 0 mm 1 mps 579 mmHg 86%
    03:00 +7°C° 0 mm 1 mps 578 mmHg 85%
    04:00 +6°C° 0 mm 2 mps 578 mmHg 85%
    05:00 +7°C° 0 mm 2 mps 579 mmHg 83%
    06:00 +8°C° 0 mm 2 mps 579 mmHg 82%
    07:00 +10°C° 0 mm 1 mps 580 mmHg 80%
    08:00 +12°C° 0 mm 1 mps 581 mmHg 72%
    09:00 +13°C° 0 mm 1 mps 581 mmHg 64%
    10:00 +15°C° 0 mm 1 mps 582 mmHg 56%
    11:00 +16°C° 0.3 mm 1 mps 582 mmHg 55%
    12:00 +16°C° 0.3 mm 1 mps 582 mmHg 54%
    13:00 +18°C° 0.3 mm 1 mps 582 mmHg 53%
    14:00 +16°C° 1.4 mm 1 mps 582 mmHg 58%
    15:00 +16°C° 1.4 mm 1 mps 582 mmHg 64%
    16:00 +15°C° 1.4 mm 1 mps 581 mmHg 69%
    17:00 +14°C° 1.2 mm 1 mps 580 mmHg 75%
    18:00 +13°C° 1.2 mm 1 mps 580 mmHg 81%
    19:00 +10°C° 1.2 mm 0 mps 579 mmHg 87%
    20:00 +11°C° 0.6 mm 1 mps 579 mmHg 87%
    21:00 +10°C° 0.6 mm 1 mps 579 mmHg 87%
    22:00 +10°C° 0.6 mm 1 mps 579 mmHg 88%
    23:00 +9°C° 0.1 mm 1 mps 579 mmHg 88%

    Day after tomorrow, 25 August, Sunday

    Time Temperature Precipitation Wind Pressure Humidity
    00:00 +9°C° 0.1 mm 1 mps 578 mmHg 88%
    01:00 +8°C° 0.1 mm 1 mps 578 mmHg 88%
    02:00 +8°C° 0 mm 1 mps 578 mmHg 89%
    03:00 +7°C° 0 mm 1 mps 577 mmHg 89%
    04:00 +6°C° 0 mm 0 mps 577 mmHg 89%
    05:00 +7°C° 0 mm 0 mps 578 mmHg 86%
    06:00 +9°C° 0 mm 0 mps 579 mmHg 84%
    07:00 +10°C° 0 mm 0 mps 579 mmHg 81%
    08:00 +11°C° 0.3 mm 0 mps 580 mmHg 77%
    09:00 +13°C° 0.3 mm 1 mps 581 mmHg 72%
    10:00 +15°C° 0.3 mm 1 mps 581 mmHg 68%
    11:00 +15°C° 1.3 mm 1 mps 581 mmHg 68%
    12:00 +15°C° 1.3 mm 1 mps 581 mmHg 68%
    13:00 +16°C° 1.3 mm 2 mps 581 mmHg 67%
    14:00 +15°C° 1.4 mm 2 mps 581 mmHg 69%
    15:00 +15°C° 1.4 mm 2 mps 581 mmHg 70%
    16:00 +15°C° 1.4 mm 2 mps 581 mmHg 72%
    17:00 +13°C° 0.5 mm 1 mps 580 mmHg 78%
    18:00 +12°C° 0.5 mm 1 mps 579 mmHg 83%
    19:00 +10°C° 0.5 mm 1 mps 578 mmHg 89%
    20:00 +9°C° 0 mm 1 mps 578 mmHg 90%
    21:00 +7°C° 0 mm 0 mps 578 mmHg 91%
    22:00 +6°C° 0 mm 0 mps 578 mmHg 92%
    23:00 +6°C° 0 mm 0 mps 578 mmHg 92%

    26 August, Monday

    Time Temperature Precipitation Wind Pressure Humidity
    00:00 +6°C° 0 mm 0 mps 577 mmHg 92%
    01:00 +5°C° 0 mm 0 mps 577 mmHg 93%
    02:00 +5°C° 0 mm 0 mps 577 mmHg 92%
    03:00 +5°C° 0 mm 0 mps 577 mmHg 92%
    04:00 +6°C° 0 mm 1 mps 576 mmHg 92%
    05:00 +7°C° 0 mm 1 mps 577 mmHg 89%
    06:00 +9°C° 0 mm 1 mps 578 mmHg 87%
    07:00 +10°C° 0 mm 1 mps 579 mmHg 84%
    08:00 +12°C° 0 mm 1 mps 580 mmHg 74%
    09:00 +13°C° 0 mm 0 mps 581 mmHg 64%
    10:00 +15°C° 0 mm 0 mps 582 mmHg 54%
    11:00 +18°C° 0 mm 1 mps 582 mmHg 49%
    12:00 +18°C° 0 mm 1 mps 582 mmHg 43%
    13:00 +19°C° 0 mm 1 mps 583 mmHg 38%
    14:00 +19°C° 0.1 mm 1 mps 582 mmHg 40%
    15:00 +19°C° 0.1 mm 1 mps 582 mmHg 41%
    16:00 +18°C° 0.1 mm 2 mps 582 mmHg 43%
    17:00 +16°C° 0.1 mm 1 mps 581 mmHg 56%
    18:00 +13°C° 0.1 mm 1 mps 580 mmHg 70%
    19:00 +11°C° 0.1 mm 1 mps 579 mmHg 84%
    20:00 +10°C° 0 mm 1 mps 578 mmHg 86%
    21:00 +8°C° 0 mm 0 mps 578 mmHg 88%
    22:00 +7°C° 0 mm 0 mps 578 mmHg 90%
    23:00 +8°C° 0 mm 1 mps 578 mmHg 89%

    27 August, Tuesday

    Time Temperature Precipitation Wind Pressure Humidity
    00:00 +8°C° 0 mm 1 mps 578 mmHg 89%
    01:00 +8°C° 0 mm 1 mps 578 mmHg 89%
    02:00 +7°C° 0 mm 1 mps 577 mmHg 88%
    03:00 +7°C° 0 mm 1 mps 577 mmHg 88%
    04:00 +7°C° 0 mm 1 mps 577 mmHg 88%
    05:00 +8°C° 0 mm 1 mps 578 mmHg 86%
    06:00 +10°C° 0 mm 1 mps 579 mmHg 83%
    07:00 +11°C° 0 mm 1 mps 580 mmHg 80%
    08:00 +13°C° 0 mm 1 mps 581 mmHg 71%
    09:00 +15°C° 0 mm 1 mps 582 mmHg 61%
    10:00 +16°C° 0 mm 0 mps 582 mmHg 52%
    11:00 +19°C° 0 mm 1 mps 583 mmHg 48%
    12:00 +20°C° 0 mm 1 mps 583 mmHg 43%
    13:00 +20°C° 0 mm 1 mps 583 mmHg 39%
    14:00 +20°C° 0 mm 1 mps 583 mmHg 40%
    15:00 +20°C° 0 mm 1 mps 583 mmHg 41%
    16:00 +19°C° 0 mm 2 mps 583 mmHg 42%
    17:00 +18°C° 0 mm 1 mps 581 mmHg 54%
    18:00 +14°C° 0 mm 1 mps 580 mmHg 67%
    19:00 +12°C° 0 mm 1 mps 579 mmHg 80%
    20:00 +11°C° 0 mm 1 mps 579 mmHg 83%
    21:00 +10°C° 0 mm 1 mps 579 mmHg 86%
    22:00 +9°C° 0 mm 1 mps 579 mmHg 89%
    23:00 +9°C° 0 mm 1 mps 579 mmHg 89%

    28 August, Wednesday

    Time Temperature Precipitation Wind Pressure Humidity
    00:00 +9°C° 0 mm 1 mps 579 mmHg 89%
    01:00 +9°C° 0 mm 1 mps 579 mmHg 90%
    02:00 +9°C° 0 mm 1 mps 578 mmHg 90%
    03:00 +8°C° 0 mm 1 mps 578 mmHg 90%
    04:00 +8°C° 0 mm 1 mps 578 mmHg 90%
    05:00 +9°C° 0 mm 1 mps 578 mmHg 88%
    06:00 +10°C° 0 mm 1 mps 579 mmHg 86%
    07:00 +11°C° 0 mm 1 mps 579 mmHg 83%
    08:00 +13°C° 0 mm 1 mps 580 mmHg 75%
    09:00 +15°C° 0 mm 1 mps 581 mmHg 67%
    10:00 +18°C° 0 mm 1 mps 582 mmHg 59%
    11:00 +18°C° 0.4 mm 1 mps 582 mmHg 57%
    12:00 +19°C° 0.4 mm 1 mps 581 mmHg 55%
    13:00 +19°C° 0.4 mm 1 mps 581 mmHg 53%
    14:00 +18°C° 1.3 mm 1 mps 581 mmHg 58%
    15:00 +16°C° 1.3 mm 1 mps 580 mmHg 63%
    16:00 +16°C° 1.3 mm 1 mps 579 mmHg 68%
    17:00 +14°C° 1.1 mm 1 mps 579 mmHg 73%
    18:00 +13°C° 1.1 mm 1 mps 578 mmHg 79%
    19:00 +11°C° 1.1 mm 0 mps 578 mmHg 85%
    20:00 +10°C° 0.4 mm 0 mps 578 mmHg 86%
    21:00 +10°C° 0.4 mm 1 mps 577 mmHg 87%
    22:00 +9°C° 0.4 mm 1 mps 577 mmHg 88%
    23:00 +9°C° 0.2 mm 1 mps 577 mmHg 88%
    Show more